Preview of NWS' New Version of Forecast
This preview is not operational and should not be used for support decisions.

Regional Weather Roundup (RWR)

Issued by National Weather Service (NWS)

                            
000
ASUS43 KLSX 231507
RWRMO 

WEATHER SUMMARY FOR MISSOURI
NATIONAL WEATHER SERVICE SPRINGFIELD MO
1000 AM CDT THU MAY 23 2019

NOTE: "FAIR" INDICATES FEW OR NO CLOUDS BELOW 12,000 FEET WITH NO
       SIGNIFICANT WEATHER AND/OR OBSTRUCTIONS TO VISIBILITY.
       CURRENT SKY AND/OR WEATHER CONDITIONS ARE NOT AVAILABLE FOR
       CHILLICOTHE AND FARMINGTON.

MOZ001>031-035>038-043-044-053-054-231600-
...NORTHERN AND WESTERN MISSOURI...
  
CITY           SKY/WX    TMP DP  RH WIND       PRES   REMARKS
KANSAS CTY INT SUNNY     68  53  58 NE8       30.11S                  
KANSAS C DTWN  PTSUNNY   68  51  54 NE6       30.09F                  
LEE'S SUMMIT   CLOUDY    64  54  69 NE8       30.11R                  
ST JOSEPH      MOSUNNY   65  48  54 N9        30.13R                  
CHILLICOTHE      N/A     67  52  58 VRB6      30.13R                  
KIRKSVILLE     SUNNY     66  51  58 N8        30.12S                  
     
$$
MOZ066>068-077>081-088>096-101>105-231600-
...SOUTHWEST MISSOURI...
  
CITY           SKY/WX    TMP DP  RH WIND       PRES   REMARKS
SPRINGFIELD    CLOUDY    68  65  90 CALM      30.11R                  
JOPLIN         CLOUDY    68  67  96 NE6       30.08R                  
BRANSON        PTSUNNY   77  70  78 S9        30.12R                  
               
$$
MOZ032>034-039>042-045>050-055>058-069>072-231600-
...CENTRAL MISSOURI...  
  
CITY           SKY/WX    TMP DP  RH WIND       PRES   REMARKS
COLUMBIA       CLOUDY    66  62  87 NE5       30.08F                  
ROLLA          TSTM      68  65  90 S10       30.09F                  
SEDALIA        CLOUDY    63  62  97 N6        30.11R                  
WHITEMAN AFB   CLOUDY    64  64 100 NE7       30.06R                  
WARRENSBURG    CLOUDY    61  59  94 NE6       30.09F                  
OSAGE BEACH    LGT RAIN  67  66  97 W12       30.12R                  
               
$$
MOZ051-052-059>065-231600-
...EAST CENTRAL MISSOURI...
  
CITY           SKY/WX    TMP DP  RH WIND       PRES   REMARKS
ST LOUIS INTL  CLOUDY    73  67  81 NW6       30.09R                  
SPIRIT OF STL  CLOUDY    73  69  87 CALM      30.07R HAZE             
ST CHARLES     CLOUDY    72  67  84 N5        30.07R                  
                   
$$
MOZ072>076-082>087-097>100-106>115-231600-
...SOUTH CENTRAL AND SOUTHEAST MISSOURI...
  
CITY           SKY/WX    TMP DP  RH WIND       PRES   REMARKS
CAPE GIRARDEAU FAIR      80  71  74 SW20G26   30.10R                  
FARMINGTON     CLOUDY    76  71  85 SW12      30.12R                  
POPLAR BLUFF   FAIR      79  74  84 SW14      30.11R                  
WEST PLAINS    CLOUDY    78  70  76 S12G17    30.14R                  
                                       
$$